Location: Bocianicha
(51.5066°N, 19.2563°E)
Time: 13:28:30
(UTC+00:00)

Cosmos 1812 - Pass Details

Date: 15 June 2025
Orbit: 398 x 398 km, 82.5° (Epoch: 18 July)

Event Time Altitude Azimuth Distance (km) Brightness Sun altitude
Rises 01:23:47 0° 339° (NNW) 2,350 6.5 -7.3°
Reaches altitude 10° 01:26:02 10° 326° (NW) 1,481 5.3 -7.1°
Maximum altitude 01:28:43 25° 269° (W) 874 3.5 -6.9°
Drops below altitude 10° 01:31:23 10° 212° (SSW) 1,465 4.3 -6.6°
Enters shadow 01:31:41 - 209° (SSW) 1,573 4.5 -6.6°
